FW4468 Weather Reports


time (UTC)temp
C
wind
direction
speed
KPH
gust
KPH
rain 1hr
cm
rain 24hr
cm
rain mn
cm
humidity
%
barometer
mb
20260901081510 12 276 0.0 0.0 0.00 0.00 0.00 67 1008.2
20260901080007 12 276 0.0 0.0 0.00 0.00 0.00 66 1008.0
20260901074503 12 276 0.0 1.6 0.00 0.00 0.00 66 1008.0
20260901073003 13 276 0.0 0.0 0.00 0.00 0.00 66 1008.0
20260901071600 13 276 0.0 0.0 0.00 0.00 0.00 65 1008.0
20260901070107 13 276 0.0 0.0 0.00 0.00 0.00 64 1007.9
20260901064556 14 276 0.0 0.0 0.00 0.00 0.00 63 1007.7
20260901063055 14 276 0.0 0.0 0.00 0.00 0.00 62 1008.0
20260901061555 15 276 0.0 1.6 0.00 0.00 0.00 61 1008.1
20260901060055 15 276 0.0 3.2 0.00 0.00 0.00 61 1008.2
20260901054558 15 275 0.0 4.8 0.00 0.00 0.00 61 1008.1
20260901053055 15 144 0.0 1.6 0.00 0.00 0.00 60 1008.2
20260901051555 15 144 0.0 0.0 0.00 0.00 0.00 59 1008.3
20260901050054 16 144 0.0 0.0 0.00 0.00 0.00 57 1008.3
20260901044559 16 144 0.0 0.0 0.00 0.00 0.00 56 1008.4
20260901043053 16 144 0.0 1.6 0.00 0.00 0.00 55 1008.3
20260901041551 17 138 0.0 4.8 0.00 0.00 0.00 54 1008.3
20260901040052 17 79 0.0 3.2 0.00 0.00 0.00 53 1008.3
20260901034550 17 121 0.0 3.2 0.00 0.00 0.00 52 1008.1
20260901033109 18 165 0.0 6.4 0.00 0.00 0.00 51 1007.9
20260901031549 18 137 0.0 3.2 0.00 0.00 0.00 50 1007.8
20260901030058 19 266 1.6 6.4 0.00 0.00 0.00 48 1007.7
20260901024549 20 100 0.0 4.8 0.00 0.00 0.00 46 1007.7
20260901023049 20 157 0.0 3.2 0.00 0.00 0.00 45 1007.8
20260901021559 20 150 1.6 8.0 0.00 0.00 0.00 45 1007.8
20260901020046 20 35 1.6 6.4 0.00 0.00 0.00 46 1007.9
20260901014545 20 258 1.6 6.4 0.00 0.00 0.00 47 1007.9
20260901013052 20 320 0.0 9.7 0.00 0.00 0.00 47 1007.8
20260901011607 21 320 1.6 12.9 0.00 0.00 0.00 46 1008.0
20260901010042 21 196 1.6 8.0 0.00 0.00 0.00 44 1008.1
20260901004542 21 319 1.6 6.4 0.00 0.00 0.00 44 1008.1
20260901003047 21 85 4.8 16.1 0.00 0.00 0.00 43 1008.1
20260901001539 22 148 1.6 12.9 0.00 0.00 0.00 42 1008.3
20260901000036 22 46 4.8 12.9 0.00 0.00 0.00 40 1008.4
20260831234536 23 103 1.6 12.9 0.00 0.00 0.00 41 1008.5
20260831233036 23 107 3.2 14.5 0.00 0.00 0.00 40 1008.6
20260831231533 23 148 1.6 14.5 0.00 0.00 0.00 43 1008.7
20260831230031 23 63 1.6 8.0 0.00 0.00 0.00 41 1008.9
20260831224529 22 101 3.2 20.9 0.00 0.00 0.00 40 1009.0
20260831223036 22 279 3.2 11.3 0.00 0.00 0.00 41 1009.1
20260831221526 23 51 4.8 11.3 0.00 0.00 0.00 39 1009.2
20260831220028 23 243 1.6 12.9 0.00 0.00 0.00 39 1009.5
20260831214523 23 316 3.2 12.9 0.00 0.00 0.00 38 1009.7
20260831213022 23 242 1.6 19.3 0.00 0.00 0.00 39 1009.9
20260831211532 23 355 4.8 17.7 0.00 0.00 0.00 37 1010.0
20260831210017 23 325 4.8 16.1 0.00 0.00 0.00 39 1010.3
20260831204515 23 49 4.8 17.7 0.00 0.00 0.00 38 1010.5
20260831203012 23 267 4.8 19.3 0.00 0.00 0.00 35 1010.8
20260831201509 23 230 3.2 16.1 0.00 0.00 0.00 39 1010.8
20260831200006 22 179 3.2 17.7 0.00 0.00 0.00 41 1010.9
20260831194503 22 236 4.8 11.3 0.00 0.00 0.00 43 1011.0
20260831193000 21 17 3.2 12.9 0.00 0.00 0.00 44 1011.2
20260831191557 21 173 3.2 12.9 0.00 0.00 0.00 43 1011.4
20260831190108 21 54 3.2 14.5 0.00 0.00 0.00 45 1011.4
20260831184552 21 325 3.2 17.7 0.00 0.00 0.00 48 1011.7
20260831183051 20 57 1.6 9.7 0.00 0.00 0.00 50 1012.1
20260831181552 20 36 3.2 11.3 0.00 0.00 0.00 50 1012.1
20260831180054 20 180 3.2 14.5 0.00 0.00 0.00 51 1012.4
20260831174540 19 113 3.2 17.7 0.00 0.00 0.00 53 1012.5
20260831173038 18 328 1.6 12.9 0.00 0.00 0.00 54 1012.8
20260831171534 18 88 3.2 11.3 0.00 0.00 0.00 56 1012.9
20260831170030 17 138 1.6 14.5 0.00 0.00 0.00 57 1012.7
20260831164528 17 43 1.6 12.9 0.00 0.00 0.00 59 1012.8
20260831163025 16 65 1.6 8.0 0.00 0.00 0.00 63 1012.8
20260831161522 15 295 0.0 11.3 0.00 0.00 0.00 63 1013.0
20260831160016 15 309 0.0 8.0 0.00 0.00 0.00 64 1013.1
20260831154514 15 150 0.0 8.0 0.00 0.00 0.00 65 1013.4
20260831153010 14 325 1.6 9.7 0.00 0.00 0.00 66 1013.3
20260831151608 13 73 0.0 4.8 0.00 0.00 0.00 68 1013.3
20260831150005 13 189 0.0 8.0 0.00 0.00 0.00 74 1013.2
20260831144504 12 53 0.0 4.8 0.00 0.00 0.00 76 1013.3
20260831143004 12 125 0.0 6.4 0.00 0.00 0.00 76 1013.3
20260831141502 12 116 0.0 4.8 0.00 0.00 0.00 76 1013.2
20260831140002 12 96 0.0 4.8 0.00 0.00 0.00 75 1013.2
20260831134501 12 115 0.0 1.6 0.00 0.00 0.00 75 1013.2
20260831133001 12 159 0.0 3.2 0.00 0.00 0.00 74 1013.1
20260831131604 12 271 0.0 3.2 0.00 0.00 0.00 74 1013.1
20260831130059 12 284 1.6 8.0 0.00 0.00 0.00 75 1013.2
20260831124557 12 63 1.6 6.4 0.00 0.00 0.00 76 1013.5
20260831123055 12 154 0.0 4.8 0.00 0.00 0.00 76 1013.5
20260831121554 12 279 0.0 4.8 0.00 0.00 0.00 77 1013.7
20260831120053 12 30 0.0 6.4 0.00 0.00 0.00 78 1013.7
20260831114552 12 243 0.0 4.8 0.00 0.00 0.00 78 1013.9
20260831113052 12 280 0.0 6.4 0.00 0.00 0.00 78 1014.1
20260831111559 12 290 0.0 4.8 0.00 0.00 0.00 78 1014.3
20260831110047 11 126 0.0 3.2 0.00 0.00 0.00 74 1014.2
20260831104548 11 109 0.0 1.6 0.00 0.00 0.00 74 1014.4
20260831103044 12 5 0.0 1.6 0.00 0.00 0.00 74 1014.4
20260831101550 11 254 0.0 1.6 0.00 0.00 0.00 71 1014.5
20260831100040 11 254 0.0 1.6 0.00 0.00 0.00 70 1014.7
20260831094538 12 254 0.0 1.6 0.00 0.00 0.00 70 1015.0
20260831093039 12 254 0.0 3.2 0.00 0.00 0.00 69 1015.2
20260831091551 12 254 0.0 3.2 0.00 0.00 0.00 68 1015.1
20260831090032 12 273 0.0 1.6 0.00 0.00 0.00 68 1015.4
20260831084529 12 273 0.0 0.0 0.00 0.00 0.00 68 1015.5
20260831083028 12 273 0.0 1.6 0.00 0.00 0.00 68 1015.4
20260831081535 13 271 0.0 3.2 0.00 0.00 0.00 67 1015.8